Wind_Speed
27 27 26 26 25 24 23 23 22 22 21 22 22 24 24 27 24 10 4 2 5 11 7 14 7 7 5 3 5 3 2 3 6 7 4 7 4 3 6 8 4 4 3 18 27
28 28 28 28 27 27 25 24 24 23 21 22 22 23 23 25 20 6 4 4 5 11 9 12 4 8 2 3 3 3 3 7 8 7 6 7 6 6 5 6 5 10 18 25 24
30 30 30 30 30 29 28 25 24 23 22 22 21 22 21 18 4 2 12 11 5 8 5 5 4 6 4 4 3 5 4 4 3 7 13 8 5 3 9 2 5 14 17 21 21
31 32 33 32 32 30 29 27 26 24 21 21 21 21 18 8 3 3 2 7 8 1 3 2 3 3 1 3 5 2 2 4 6 9 8 7 4 5 6 4 11 18 21 22 17
31 33 35 35 34 33 30 28 28 25 21 19 19 17 7 4 9 5 8 6 2 3 2 1 2 2 3 4 4 3 3 6 11 13 8 10 6 5 5 7 15 21 20 17 17
32 33 35 37 36 35 31 31 28 25 21 18 16 10 1 5 7 9 10 3 2 6 4 2 0 2 2 5 4 5 10 9 7 9 5 7 3 2 5 11 16 19 18 16 16
31 34 36 38 38 38 33 30 28 26 21 17 12 3 1 14 9 7 10 16 19 20 5 4 2 1 2 4 2 6 7 8 4 3 3 8 4 3 10 12 12 11 12 11 13
32 34 37 39 40 40 33 27 30 24 20 14 6 4 7 13 15 18 19 17 13 11 15 15 11 1 1 4 5 6 5 4 3 5 5 3 3 5 9 12 9 11 10 11 12
32 35 37 39 40 38 30 28 13 8 3 5 6 4 9 7 7 8 14 9 5 10 10 7 3 3 4 5 4 5 4 3 2 8 5 2 2 8 9 9 10 9 10 10 10
33 35 38 41 41 31 29 11 6 6 7 4 2 2 6 2 4 5 6 10 4 5 1 3 4 3 3 4 7 5 3 1 5 8 5 6 3 11 12 10 11 10 10 10 11
32 34 38 40 40 23 25 5 7 4 7 5 2 4 6 11 3 3 2 7 4 4 7 4 4 6 10 8 5 6 3 6 3 6 5 7 5 13 13 9 8 7 10 10 11
32 34 37 38 30 22 16 6 4 4 9 7 11 11 19 6 5 4 3 5 5 7 5 4 7 10 3 6 5 5 3 3 1 3 3 5 2 8 13 14 13 12 8 10 7
33 34 37 38 16 20 10 9 15 5 3 9 7 7 6 12 8 8 6 5 4 7 8 9 8 8 7 5 5 4 6 5 2 4 3 6 3 5 8 10 11 11 11 9 11
32 33 35 38 5 23 6 18 22 3 3 8 5 8 6 9 7 12 14 6 3 10 9 5 4 8 6 6 7 4 8 6 8 4 3 3 4 5 8 15 15 14 14 13 12
32 32 32 26 14 9 10 24 19 5 5 3 4 1 4 9 4 8 17 4 8 6 8 9 9 8 7 8 9 9 7 8 4 2 4 0 1 6 8 9 18 17 17 16 15
32 31 32 17 16 13 21 24 1 4 8 6 2 2 3 4 4 3 5 4 6 4 1 8 4 9 9 5 14 6 7 7 5 4 1 7 6 5 6 11 16 15 17 17 16
32 30 27 15 5 17 17 6 3 4 6 6 5 7 5 4 4 3 8 9 8 7 5 1 4 3 5 5 5 6 7 1 1 1 5 3 2 11 7 8 13 20 17 17 15
31 29 14 10 14 11 6 3 5 4 5 4 7 10 2 7 5 6 8 11 4 7 6 7 6 9 5 11 9 8 9 6 6 4 3 4 6 7 6 8 13 15 18 16 15
31 22 3 17 11 3 4 2 6 1 5 8 6 6 6 6 7 4 8 11 16 9 8 7 6 3 6 4 14 5 6 8 7 2 3 3 8 10 1 6 11 11 11 15 17
25 11 5 20 4 2 4 3 3 4 6 5 4 5 4 6 9 7 6 4 7 10 4 8 3 5 9 4 3 9 9 4 2 3 2 5 5 6 4 8 10 10 14 15 15
8 4 3 17 2 4 2 5 4 2 9 6 5 5 4 5 4 5 4 5 9 9 6 7 3 4 7 10 9 4 5 6 6 4 6 1 6 8 6 10 15 15 14 16 16
5 3 11 10 3 1 2 2 4 3 3 3 3 4 3 5 4 4 4 3 11 7 14 6 5 4 11 1 6 7 8 7 6 4 2 4 7 3 8 8 10 12 14 13 14
2 3 6 6 2 3 5 4 3 2 0 3 3 2 2 3 5 5 4 8 7 11 5 3 4 2 2 4 3 16 6 6 7 4 8 6 7 4 4 8 8 8 8 13 12
2 3 4 4 0 2 4 4 4 5 3 4 4 4 4 3 6 6 7 8 15 17 19 3 3 11 8 6 6 6 11 8 8 5 6 7 7 5 3 8 8 9 9 9 13
1 1 1 3 3 3 2 2 3 4 4 3 3 4 3 4 5 5 3 6 8 7 7 4 6 7 12 4 3 7 10 10 16 8 12 11 9 10 11 10 11 15 10 10 12
1 1 3 2 3 3 2 3 2 1 3 4 3 6 7 3 5 9 10 3 8 7 9 8 4 6 10 15 15 5 5 17 14 6 6 6 9 10 5 5 6 10 10 15 18
2 1 3 2 3 1 3 1 3 10 6 7 9 11 9 10 6 8 9 9 11 8 5 4 4 6 14 7 4 12 22 8 6 5 11 12 12 5 6 9 11 11 13 18 20
Wind_Direction
9 6 4 2 359 356 353 350 347 344 340 336 336 339 340 335 333 317 256 223 171 169 167 160 188 178 176 235 211 146 61 168 184 159 180 143 121 89 89 126 83 26 99 130 145
8 5 2 359 356 353 349 344 341 338 335 333 331 336 340 336 328 284 299 199 163 166 161 165 179 163 184 223 202 136 146 211 179 155 145 130 114 124 134 128 69 93 113 130 140
6 5 2 358 354 350 345 340 335 332 329 329 327 332 338 338 321 180 71 80 129 184 217 220 177 152 206 171 205 181 211 182 86 108 126 129 108 100 126 189 156 151 139 142 148
2 1 359 356 352 347 340 334 328 325 324 322 325 331 335 341 276 153 72 15 6 283 262 212 203 180 10 302 181 185 282 118 129 120 118 116 96 102 49 344 145 151 145 144 160
357 357 355 353 349 344 336 328 324 318 315 316 320 334 348 3 251 246 302 353 33 330 0 357 18 61 354 281 132 76 43 51 102 107 84 86 73 103 62 72 127 140 149 153 162
355 354 352 350 347 342 332 327 323 313 306 308 311 323 19 249 263 276 278 282 2 353 327 240 123 285 255 3 61 70 77 90 91 96 97 108 124 88 104 121 135 145 152 160 164
354 351 349 348 345 342 331 325 322 309 296 294 293 272 220 238 257 253 265 284 287 291 284 237 210 160 236 110 90 76 75 60 79 83 108 124 39 60 137 134 140 142 148 146 161
353 351 348 345 344 341 331 328 317 302 288 276 243 161 244 260 266 266 271 272 267 254 252 272 279 179 65 120 41 85 55 100 226 163 183 45 240 161 161 143 151 162 168 169 174
350 350 348 346 345 338 335 330 335 341 312 158 143 160 264 287 267 281 246 228 195 229 245 263 111 120 67 101 58 23 179 159 162 209 151 183 226 176 175 166 166 183 185 187 183
349 348 347 346 347 340 338 329 17 39 64 94 87 18 268 243 314 281 296 218 178 162 181 130 57 101 51 95 189 195 229 142 187 195 164 178 217 164 186 192 184 193 197 199 188
351 349 346 345 347 352 350 6 12 342 19 207 247 276 300 342 314 251 303 148 187 118 163 167 118 189 210 188 163 164 200 177 204 178 138 198 170 183 190 210 191 192 196 202 204
349 349 346 346 347 1 37 69 82 275 306 259 246 256 263 282 307 280 181 156 151 167 138 75 195 211 128 154 146 145 147 254 316 153 123 163 245 181 196 210 201 202 201 206 199
348 349 347 345 351 357 47 76 347 330 232 288 218 210 199 163 210 246 170 160 167 141 182 165 208 152 163 173 162 159 185 177 193 148 59 133 315 195 214 214 211 215 213 204 199
346 348 348 347 6 338 328 336 338 179 352 272 245 259 179 141 261 196 191 164 182 179 134 188 209 159 166 196 141 211 200 143 133 116 205 160 271 241 202 207 220 213 207 209 200
342 344 344 346 318 316 314 326 335 141 320 237 205 90 171 176 166 233 178 111 187 178 130 216 172 171 185 188 161 225 149 159 132 125 98 274 22 262 167 208 220 215 210 205 203
339 340 336 332 310 301 317 323 123 47 246 319 50 76 77 287 278 97 157 116 148 143 134 194 187 170 196 169 184 134 84 51 48 82 292 215 169 261 184 211 203 217 210 201 201
337 335 330 320 278 307 317 337 73 179 330 336 343 359 319 230 227 188 170 169 154 140 189 147 211 220 156 139 149 106 94 8 314 334 223 283 152 245 235 216 191 198 204 200 196
336 334 340 346 331 308 334 46 175 232 290 7 331 302 330 352 253 208 155 186 210 123 135 155 205 191 208 191 156 173 152 160 190 189 255 99 231 251 247 187 175 188 190 189 190
336 339 6 8 341 12 72 140 212 24 340 334 318 27 336 348 360 320 199 207 189 164 150 150 245 274 190 177 158 182 154 180 98 8 62 245 289 296 91 137 156 165 154 189 194
337 327 320 348 321 33 72 243 295 343 339 2 45 2 328 326 359 19 173 217 195 189 143 198 167 212 192 132 154 167 151 95 2 137 203 280 280 248 307 190 173 160 174 192 195
352 9 25 357 130 50 171 241 277 330 21 15 4 325 320 350 302 300 285 11 358 199 138 145 110 261 115 197 179 129 135 54 116 126 169 218 263 216 228 198 180 185 183 185 189
21 340 354 2 47 18 172 225 302 338 341 310 268 241 264 341 318 304 317 317 2 307 191 196 138 195 198 163 212 161 165 141 131 216 169 153 270 244 230 190 173 188 181 185 188
356 268 341 7 83 338 313 292 268 283 150 10 324 280 9 319 319 301 288 317 352 13 21 311 194 106 67 20 350 201 188 127 110 95 186 148 265 343 165 153 178 186 195 184 176
27 350 326 35 59 76 352 286 312 333 269 257 241 266 313 286 211 279 310 314 320 314 295 207 198 184 192 210 144 169 181 175 146 144 170 209 252 292 227 173 178 201 195 195 182
27 287 110 313 333 339 268 274 327 342 345 315 316 227 276 289 318 247 278 298 313 354 1 59 218 184 202 212 158 172 176 170 194 178 187 225 202 235 227 205 204 201 192 174 197
175 102 4 278 291 299 260 260 321 358 311 278 240 331 0 290 262 289 327 302 252 334 9 352 301 203 207 219 239 259 222 185 196 166 187 203 239 221 215 190 191 215 187 199 200
175 236 110 256 257 215 234 294 307 319 269 279 299 322 303 274 312 289 257 248 262 293 356 305 350 4 223 163 218 252 232 194 184 169 173 206 223 210 188 201 206 210 198 202 203
Height
808 805 802 799 796 793 790 786 783 780 777 774 771 768 764 760 757 754 752 750 749 750 751 753 757 760 762 763 761 760 789 797 791 792 788 782 789 785 789 795 797 800 802 807 814
809 805 802 799 795 792 789 786 782 779 776 773 769 767 764 760 755 752 750 749 750 750 751 752 757 759 766 763 762 772 792 781 764 768 779 781 785 790 795 799 807 806 807 813 817
810 806 802 798 794 791 787 784 781 778 775 772 769 766 764 760 757 750 749 749 750 750 751 752 752 756 766 761 761 767 780 763 763 764 769 781 786 786 795 803 803 806 807 813 819
810 806 802 798 793 789 785 782 779 776 774 771 768 765 763 762 777 748 748 749 749 749 749 749 750 757 762 766 754 768 757 758 763 764 773 784 785 792 794 798 793 800 806 812 819
811 807 801 797 792 788 784 780 776 773 772 770 768 766 764 765 757 747 747 748 748 747 747 747 750 754 768 761 756 765 762 762 763 767 776 779 790 794 800 797 797 801 809 815 819
811 807 802 797 791 786 780 776 773 770 768 767 766 766 767 774 747 745 746 746 747 747 746 746 749 749 757 760 763 764 765 771 772 774 780 789 793 791 801 800 803 805 811 816 820
812 806 801 796 790 784 778 773 769 765 764 764 764 765 766 755 744 743 743 743 745 745 746 743 745 750 750 761 759 766 785 781 782 782 788 784 801 805 800 802 807 810 812 816 820
812 807 801 794 787 781 775 770 764 759 758 759 761 764 762 741 738 739 740 739 741 742 742 742 742 746 750 753 767 781 789 807 786 784 785 786 810 802 799 800 808 810 812 815 818
811 806 801 794 786 778 771 766 760 756 755 757 761 762 758 738 737 734 735 737 738 739 740 742 742 751 756 774 790 794 809 801 796 779 783 792 806 799 798 800 805 807 810 812 816
810 805 799 793 787 777 769 763 761 759 759 760 761 765 742 738 734 733 732 733 735 737 741 745 757 770 776 785 816 802 800 796 796 784 785 796 799 798 798 799 801 804 806 807 810
811 805 798 792 786 779 769 764 768 765 762 758 757 750 739 735 733 730 731 733 734 739 760 751 773 785 772 769 769 778 786 790 781 774 785 795 796 798 796 799 800 802 803 804 804
811 805 799 792 786 782 777 782 794 797 784 753 750 749 739 741 744 731 730 737 739 755 751 766 778 760 756 763 766 774 785 789 779 773 781 793 794 794 793 792 793 795 798 799 802
812 806 799 793 787 785 787 791 792 791 793 752 739 736 732 736 740 733 728 732 741 754 756 766 758 750 757 765 772 779 786 787 783 779 782 790 800 798 789 788 788 789 790 792 795
812 807 801 793 792 790 789 790 789 788 791 755 738 724 723 725 732 717 720 726 738 752 755 756 743 750 759 764 766 785 763 769 778 794 811 782 823 800 788 788 786 784 785 786 789
811 807 802 798 797 794 791 787 786 788 798 730 728 715 716 723 715 716 710 723 741 744 749 758 753 755 759 754 751 767 756 766 774 791 795 797 814 789 781 792 782 775 775 777 781
810 805 800 798 795 791 788 784 784 797 795 740 721 726 729 723 716 711 715 713 722 736 738 744 732 739 743 738 739 746 762 780 795 806 825 801 801 787 789 764 764 762 765 767 773
807 802 797 794 792 789 787 785 797 803 754 751 748 743 741 730 723 717 725 731 744 764 762 746 742 729 726 747 743 756 780 821 825 828 824 798 803 768 751 745 743 750 756 759 764
804 797 794 792 790 788 789 793 794 772 768 759 757 749 739 735 724 719 727 733 727 735 763 769 774 739 723 732 754 763 772 814 826 832 813 800 806 765 727 726 729 735 741 751 758
800 795 793 792 790 789 794 803 786 777 774 772 758 759 755 747 748 729 729 722 715 724 748 768 760 724 721 719 723 762 777 764 805 806 811 799 776 741 725 732 732 738 744 749 751
801 797 794 793 791 790 802 801 791 781 775 775 778 772 770 762 757 749 730 711 717 712 712 738 758 727 722 715 721 733 739 782 803 812 818 805 790 778 736 741 733 740 741 744 746
803 803 795 793 792 797 809 810 791 780 779 781 783 780 772 770 764 757 738 722 722 711 711 731 741 738 727 732 740 744 758 774 778 795 815 822 798 743 729 730 730 729 731 737 740
809 811 794 791 803 815 807 796 788 784 779 780 778 778 775 772 770 761 755 741 725 722 716 720 745 752 737 718 711 717 743 752 787 796 803 803 782 720 720 719 723 724 726 730 733
817 815 795 792 809 813 806 797 789 785 780 781 780 775 772 775 778 766 752 733 730 734 740 725 742 764 741 734 722 722 734 743 759 774 792 798 776 719 719 719 719 724 725 724 729
818 817 807 803 811 807 807 802 794 784 783 780 778 775 776 774 773 767 758 742 733 735 723 727 740 733 748 732 727 734 732 733 742 780 781 778 752 730 719 719 721 720 721 724 724
819 817 813 819 811 813 811 805 798 794 785 783 779 777 776 779 775 770 758 753 737 729 729 736 739 727 721 714 712 716 724 734 731 743 747 739 756 732 722 718 712 708 714 721 724
819 819 817 818 815 812 806 802 797 790 789 786 786 780 785 783 775 773 768 763 762 746 749 748 737 725 724 714 713 724 714 717 717 730 729 728 738 708 703 704 708 706 710 713 712
814 815 816 811 813 810 806 794 795 792 790 787 786 787 786 776 773 771 770 768 764 765 762 759 753 751 725 720 724 736 706 718 715 714 713 732 710 698 702 705 702 702 703 699 697